Greensboro, NC

5:40 PM EDT on October 18, 2017 (GMT -0400)
Piedmont Triad International

Weather History for KGSO - January, 2013

Change the Weather History Date:

Wednesday, January 23, 2013

  Actual Average Record
Temperature  
Mean Temperature 30 °F 39 °F  
Max Temperature 41 °F 49 °F 73 °F (1967)
Min Temperature 19 °F 30 °F 6 °F (1936)
Degree Days  
Heating Degree Days 35 26  
Month to date heating degree days 491 598  
Since 1 July heating degree days 1825 2012  
Cooling Degree Days 0 0  
Month to date cooling degree days 0 0  
Year to date cooling degree days 0 0  
Moisture  
Dew Point 8 °F    
Average Humidity 43    
Maximum Humidity 57    
Minimum Humidity 29    
Precipitation  
Precipitation 0.00 in 0.10 in 1.23 in (2002)
Month to date precipitation 4.41 2.30  
Year to date precipitation 4.41 2.30  
Snow  
Snow 0.00 in 0.10 in 4.00 in (1940)
Month to date snowfall 3.0 2.5  
Since 1 July snowfall 3.0 3.4  
Snow Depth 0.00 in    
Sea Level Pressure  
Sea Level Pressure 30.23 in    
Wind  
Wind Speed 6 mph (SW)    
Max Wind Speed 20 mph    
Max Gust Speed 24 mph    
Visibility 10 miles    
Events      
T = Trace of Precipitation, MM = Missing Value Source: NWS Daily Summary

Daily Weather History Graph

Daily Weather History Graph

Search for Another Location

Airport or City:

Trip Planner

Search our weather history database for the weather conditions in past years. The results will help you decide how hot, cold, wet, or windy it might be!

Date:

Astronomy

Jan. 23, 2013 Rise Set
Actual Time 7:26 AM EST 5:37 PM EST
Civil Twilight 6:58 AM EST 6:04 PM EST
Nautical Twilight 6:27 AM EST 6:35 PM EST
Astronomical Twilight 5:57 AM EST 7:06 PM EST
Moon 2:47 PM EST (1/23) 4:35 AM EST (1/23)
Length of Visible Light 11h 05m
Length of Day
10h 10m
Waxing Gibbous, 89% of the Moon is Illuminated
Jan 23
Waxing Gibbous
Jan 26
Full
Feb 3
Last Quarter
Feb 10
New
Feb 17
First Quarter

Hourly Weather History & Observations

Time (EST) Temp. Windchill Dew Point Humidity Pressure Visibility Wind Dir Wind Speed Gust Speed Precip Events Conditions
12:54 AM 24.1 °F - -2.0 °F 32% 30.26 in 10.0 mi Calm Calm - N/A   Clear
1:54 AM 24.1 °F 19.7 °F -2.0 °F 32% 30.27 in 10.0 mi NE 3.5 mph - N/A   Clear
2:54 AM 23.0 °F - 1.0 °F 39% 30.28 in 10.0 mi Calm Calm - N/A   Clear
3:54 AM 21.9 °F - 3.0 °F 44% 30.29 in 10.0 mi Calm Calm - N/A   Clear
4:54 AM 21.9 °F - 1.9 °F 42% 30.29 in 10.0 mi Calm Calm - N/A   Mostly Cloudy
5:54 AM 21.0 °F - 3.0 °F 46% 30.30 in 10.0 mi Calm Calm - N/A   Clear
6:54 AM 21.0 °F - 3.9 °F 48% 30.32 in 10.0 mi Calm Calm - N/A   Partly Cloudy
7:54 AM 21.2 °F - 8.6 °F 58% 30.33 in 10.0 mi Calm Calm - N/A   Scattered Clouds
8:54 AM 24.1 °F - 3.9 °F 42% 30.34 in 10.0 mi Calm Calm - N/A   Partly Cloudy
9:54 AM 27.0 °F 23.0 °F 1.9 °F 34% 30.35 in 10.0 mi Variable 3.5 mph - N/A   Partly Cloudy
10:54 AM 30.9 °F 23.5 °F 3.0 °F 31% 30.34 in 10.0 mi SW 8.1 mph - N/A   Partly Cloudy
11:54 AM 35.1 °F 26.9 °F 7.0 °F 31% 30.30 in 10.0 mi West 11.5 mph - N/A   Partly Cloudy
12:54 PM 37.9 °F 28.9 °F 10.9 °F 33% 30.24 in 10.0 mi West 16.1 mph 20.7 mph N/A   Partly Cloudy
1:54 PM 39.9 °F 31.8 °F 12.0 °F 32% 30.21 in 10.0 mi West 15.0 mph - N/A   Mostly Cloudy
2:54 PM 39.9 °F 32.1 °F 12.0 °F 32% 30.19 in 10.0 mi WSW 13.8 mph 18.4 mph N/A   Scattered Clouds
3:54 PM 39.9 °F 32.5 °F 12.9 °F 33% 30.18 in 10.0 mi SSW 12.7 mph - N/A   Scattered Clouds
4:54 PM 39.0 °F 32.3 °F 14.0 °F 36% 30.17 in 10.0 mi SW 10.4 mph - N/A   Partly Cloudy
5:54 PM 35.1 °F 28.6 °F 14.0 °F 42% 30.17 in 10.0 mi SSW 8.1 mph - N/A   Partly Cloudy
6:54 PM 34.0 °F 28.8 °F 12.9 °F 42% 30.15 in 10.0 mi South 5.8 mph - N/A   Clear
7:54 PM 33.1 °F 28.7 °F 12.9 °F 43% 30.13 in 10.0 mi South 4.6 mph - N/A   Clear
8:54 PM 32.0 °F 25.6 °F 14.0 °F 48% 30.12 in 10.0 mi South 6.9 mph - N/A   Clear
9:54 PM 30.9 °F 25.2 °F 14.0 °F 50% 30.09 in 10.0 mi South 5.8 mph - N/A   Clear
10:54 PM 30.0 °F 25.2 °F 15.1 °F 54% 30.06 in 10.0 mi South 4.6 mph - N/A   Clear
11:54 PM 28.0 °F 21.7 °F 16.0 °F 61% 30.04 in 10.0 mi SSW 5.8 mph - N/A   Clear